Tracking 27188 objects as of 1-Apr-2023
HD Live streaming from Space Station
objects crossing your sky now

COSMOS 1375 DEB

Track COSMOS 1375 DEB now!
10-day predictions


NORAD ID: 17806
Int'l Code: 1982-055AY
Perigee: 929.4 km
Apogee: 1,008.6 km
Inclination: 65.8 °
Period: 104.3 minutes
Semi major axis: 7340 km
RCS: 0.0072 m2 (small)
Launch date: June 6, 1982
Source: Commonwealth of Independent States (former USSR) (CIS)
Launch site: PLESETSK MISSILE AND SPACE COMPLEX (PKMTR)

Note: This is SATELLITE DEBRIS
Your satellite tracking list
Your tracking list is empty




NASA's NSSDC Master Catalog

Two Line Element Set (TLE):
1 17806U 82055AY  23091.48048832  .00000049  00000-0  12292-3 0  9996
2 17806  65.8323 120.6334 0053927  16.2458  97.3703 13.80565539884837
Source of the keplerian elements: AFSPC